User: anonymous   Login
Location: Syracuse
(43.0480°N, 76.1480°W)
Time: 01:25:53
(UTC-04:00)
Language:

Cosmos 1140 Rocket - Orbit

View from above orbital plane
View from above orbital plane
View from above satellite
View from above satellite

Ground track
Ground track

The orbit data is extracted from the following two-line orbital elements,

1 11574U 79089B   15238.78098955 +.00000040 +00000-0 +20822-4 0  9993
2 11574 074.0714 357.9288 0015010 069.4184 290.8579 14.40491744881852
Epoch (UTC): 26 August 2015 18:44:37
Eccentricity: 0.0015010
inclination: 74.0714°
perigee height: 746 km
apogee height: 767 km
right ascension of ascending node: 357.9288°
argument of perigee: 69.4184°
revolutions per day: 14.40491744
mean anomaly at epoch: 290.8579°
orbit number at epoch: 88185

The dashed part of the orbit path shows where the satellite is in the earth's shadow,  

DLR